| time (UTC) | temp F | wind direction | speed MPH | gust MPH | rain 1hr in | rain 24hr in | rain mn in | humidity % | barometer mb |
| 20260504223058 | 49 | 144 | 5.0 | 6.0 | 0.00 | 0.00 | 0.00 | 95 | 1017.9 |
| 20260504222117 | 49 | 124 | 4.0 | 5.0 | 0.00 | 0.00 | 0.00 | 95 | 1017.9 |
| 20260504221057 | 49 | 121 | 3.0 | 4.0 | 0.00 | 0.00 | 0.00 | 94 | 1018.0 |
| 20260504220055 | 49 | 101 | 4.0 | 5.0 | 0.00 | 0.00 | 0.00 | 94 | 1018.1 |
| 20260504215053 | 50 | 114 | 3.0 | 5.0 | 0.00 | 0.00 | 0.00 | 93 | 1018.0 |
| 20260504214112 | 50 | 139 | 4.0 | 5.0 | 0.00 | 0.00 | 0.00 | 93 | 1018.0 |
| 20260504213051 | 51 | 130 | 3.0 | 4.0 | 0.00 | 0.00 | 0.00 | 92 | 1018.2 |
| 20260504212050 | 51 | 158 | 3.0 | 4.0 | 0.00 | 0.00 | 0.00 | 91 | 1018.2 |
| 20260504211049 | 51 | 157 | 2.0 | 3.0 | 0.00 | 0.00 | 0.00 | 92 | 1018.3 |
| 20260504210109 | 52 | 136 | 3.0 | 4.0 | 0.00 | 0.00 | 0.00 | 92 | 1018.6 |
| 20260504205047 | 52 | 124 | 3.0 | 4.0 | 0.00 | 0.00 | 0.00 | 91 | 1018.6 |
| 20260504204045 | 52 | 139 | 3.0 | 4.0 | 0.00 | 0.00 | 0.00 | 90 | 1018.7 |
| 20260504203044 | 53 | 124 | 2.0 | 4.0 | 0.00 | 0.00 | 0.00 | 90 | 1018.6 |
| 20260504202044 | 53 | 132 | 2.0 | 3.0 | 0.00 | 0.00 | 0.00 | 90 | 1018.8 |
| 20260504201043 | 53 | 131 | 3.0 | 4.0 | 0.00 | 0.00 | 0.00 | 90 | 1018.6 |
| 20260504200041 | 53 | 125 | 2.0 | 3.0 | 0.00 | 0.00 | 0.00 | 90 | 1018.6 |
| 20260504195040 | 53 | 134 | 1.0 | 2.0 | 0.00 | 0.00 | 0.00 | 89 | 1018.6 |
| 20260504194058 | 53 | 125 | 1.0 | 2.0 | 0.00 | 0.00 | 0.00 | 87 | 1018.6 |
| 20260504193037 | 54 | 97 | 1.0 | 2.0 | 0.00 | 0.00 | 0.00 | 87 | 1018.4 |
| 20260504192036 | 54 | 101 | 2.0 | 3.0 | 0.00 | 0.00 | 0.00 | 85 | 1018.4 |
| 20260504191035 | 54 | 125 | 2.0 | 3.0 | 0.00 | 0.00 | 0.00 | 83 | 1018.4 |
| 20260504190033 | 54 | 100 | 3.0 | 3.0 | 0.00 | 0.00 | 0.00 | 83 | 1018.4 |
| 20260504185032 | 54 | 100 | 1.0 | 2.0 | 0.00 | 0.00 | 0.00 | 84 | 1018.5 |
| 20260504184031 | 55 | 172 | 1.0 | 5.0 | 0.00 | 0.00 | 0.00 | 83 | 1018.5 |
| 20260504183051 | 55 | 97 | 2.0 | 3.0 | 0.00 | 0.00 | 0.00 | 84 | 1018.5 |
| 20260504182029 | 55 | 77 | 2.0 | 3.0 | 0.00 | 0.00 | 0.00 | 86 | 1018.6 |
| 20260504181028 | 55 | 91 | 3.0 | 4.0 | 0.00 | 0.00 | 0.00 | 84 | 1018.6 |
| 20260504180026 | 55 | 86 | 3.0 | 4.0 | 0.00 | 0.00 | 0.00 | 85 | 1018.7 |
| 20260504175045 | 55 | 36 | 1.0 | 4.0 | 0.00 | 0.00 | 0.00 | 85 | 1018.8 |
| 20260504174024 | 55 | 245 | 1.0 | 3.0 | 0.00 | 0.00 | 0.00 | 84 | 1018.9 |
| 20260504173023 | 55 | 265 | 3.0 | 7.0 | 0.00 | 0.00 | 0.00 | 84 | 1018.8 |
| 20260504172022 | 55 | 280 | 6.0 | 8.0 | 0.00 | 0.00 | 0.00 | 83 | 1018.9 |
| 20260504171042 | 56 | 243 | 4.0 | 7.0 | 0.00 | 0.00 | 0.00 | 83 | 1018.9 |
| 20260504160112 | 56 | 272 | 4.0 | 9.0 | 0.00 | 0.00 | 0.00 | 87 | 1018.9 |
| 20260504151127 | 59 | 233 | 8.0 | 14.0 | 0.00 | 0.00 | 0.00 | 78 | 1019.0 |
| 20260504150105 | 60 | 254 | 8.0 | 14.0 | 0.00 | 0.00 | 0.00 | 76 | 1018.6 |
| 20260504141100 | 68 | 337 | 5.0 | 9.0 | 0.00 | 0.00 | 0.00 | 48 | 1017.5 |
| 20260504081018 | 60 | 45 | 2.0 | 4.0 | 0.00 | 0.00 | 0.00 | 63 | 1019.7 |
| 20260504070110 | 56 | 88 | 3.0 | 4.0 | 0.00 | 0.00 | 0.00 | 75 | 1019.8 |
| 20260504045055 | 52 | 147 | 3.0 | 7.0 | 0.00 | 0.00 | 0.00 | 86 | 1019.7 |
| 20260504044053 | 52 | 145 | 6.0 | 8.0 | 0.00 | 0.00 | 0.00 | 87 | 1019.6 |
| 20260504043052 | 52 | 143 | 6.0 | 8.0 | 0.00 | 0.00 | 0.00 | 87 | 1019.8 |
| 20260504042051 | 52 | 166 | 6.0 | 9.0 | 0.00 | 0.00 | 0.00 | 87 | 1019.8 |
| 20260504041049 | 51 | 146 | 5.0 | 8.0 | 0.00 | 0.00 | 0.00 | 88 | 1019.7 |
| 20260504040048 | 52 | 160 | 5.0 | 6.0 | 0.00 | 0.00 | 0.00 | 88 | 1019.7 |
| 20260504035048 | 51 | 62 | 6.0 | 9.0 | 0.00 | 0.00 | 0.00 | 89 | 1019.8 |
| 20260504034046 | 51 | 102 | 2.0 | 4.0 | 0.00 | 0.00 | 0.00 | 88 | 1020.1 |
| 20260504033045 | 52 | 144 | 1.0 | 5.0 | 0.00 | 0.00 | 0.00 | 88 | 1020.2 |
| 20260504032044 | 52 | 159 | 4.0 | 6.0 | 0.00 | 0.00 | 0.00 | 88 | 1020.1 |
| 20260504031043 | 52 | 145 | 3.0 | 5.0 | 0.00 | 0.00 | 0.00 | 88 | 1020.2 |
| 20260504030041 | 52 | 163 | 3.0 | 4.0 | 0.00 | 0.00 | 0.00 | 88 | 1020.3 |
| 20260504025040 | 52 | 145 | 4.0 | 6.0 | 0.00 | 0.00 | 0.00 | 89 | 1020.2 |
| 20260504024059 | 52 | 113 | 4.0 | 4.0 | 0.00 | 0.00 | 0.00 | 88 | 1020.4 |
| 20260504023038 | 51 | 141 | 4.0 | 6.0 | 0.00 | 0.00 | 0.00 | 89 | 1020.3 |
| 20260504022036 | 52 | 131 | 5.0 | 6.0 | 0.00 | 0.00 | 0.00 | 89 | 1020.4 |
| 20260504021035 | 52 | 168 | 5.0 | 6.0 | 0.00 | 0.00 | 0.00 | 88 | 1020.2 |
| 20260504020034 | 52 | 159 | 4.0 | 5.0 | 0.00 | 0.00 | 0.00 | 89 | 1020.3 |
| 20260504015054 | 52 | 129 | 4.0 | 6.0 | 0.00 | 0.00 | 0.00 | 89 | 1020.3 |
| 20260504014032 | 52 | 116 | 3.0 | 4.0 | 0.00 | 0.00 | 0.00 | 89 | 1020.4 |
| 20260504013031 | 52 | 136 | 3.0 | 4.0 | 0.00 | 0.00 | 0.00 | 88 | 1020.3 |
| 20260504012029 | 52 | 130 | 4.0 | 6.0 | 0.00 | 0.00 | 0.00 | 88 | 1020.4 |
| 20260504011028 | 52 | 125 | 4.0 | 5.0 | 0.00 | 0.00 | 0.00 | 88 | 1020.3 |
| 20260504010027 | 53 | 125 | 3.0 | 5.0 | 0.00 | 0.00 | 0.00 | 88 | 1020.4 |
| 20260504005027 | 53 | 133 | 4.0 | 6.0 | 0.00 | 0.00 | 0.00 | 89 | 1020.3 |
| 20260504004024 | 53 | 146 | 3.0 | 3.0 | 0.00 | 0.00 | 0.00 | 89 | 1020.5 |
| 20260504003043 | 53 | 116 | 4.0 | 6.0 | 0.00 | 0.00 | 0.00 | 89 | 1020.4 |
| 20260504002022 | 53 | 160 | 3.0 | 5.0 | 0.00 | 0.00 | 0.00 | 89 | 1020.5 |
| 20260504001022 | 53 | 121 | 4.0 | 6.0 | 0.00 | 0.00 | 0.00 | 89 | 1020.6 |
| 20260504000020 | 53 | 141 | 5.0 | 6.0 | 0.00 | 0.00 | 0.00 | 90 | 1020.6 |
| 20260503235019 | 53 | 131 | 5.0 | 5.0 | 0.00 | 0.00 | 0.00 | 89 | 1020.5 |
| 20260503234017 | 53 | 154 | 5.0 | 6.0 | 0.00 | 0.00 | 0.00 | 88 | 1020.7 |
| 20260503233016 | 53 | 168 | 4.0 | 5.0 | 0.00 | 0.00 | 0.00 | 88 | 1020.7 |
| 20260503232115 | 53 | 148 | 4.0 | 5.0 | 0.00 | 0.00 | 0.00 | 89 | 1020.7 |
| 20260503231114 | 54 | 143 | 4.0 | 5.0 | 0.00 | 0.00 | 0.00 | 87 | 1020.8 |
| 20260503230113 | 54 | 155 | 5.0 | 7.0 | 0.00 | 0.00 | 0.00 | 86 | 1020.9 |
| 20260503225112 | 55 | 148 | 2.0 | 4.0 | 0.00 | 0.00 | 0.00 | 87 | 1020.8 |
| 20260503224110 | 55 | 142 | 4.0 | 4.0 | 0.00 | 0.00 | 0.00 | 87 | 1020.7 |